Location: Bois de la Silve
(44.4667°N, 6.7833°E)
Time: 10:31:04
(UTC+00:00)

Cosmos 1703 Rocket - Pass Details

Date: 14 July 2020
Orbit: 605 x 633 km, 82.5° (Epoch: 05 August)

Event Time Altitude Azimuth Distance (km) Brightness Sun altitude
Rises 00:30:24 0° 355° (N) 2,931 8.3 -22.9°
Reaches altitude 10° 00:32:42 10° 360° (N) 2,016 7.2 -22.8°
Maximum altitude 00:37:05 55° 78° (ENE) 756 4.0 -22.6°
Enters shadow 00:38:05 44° 124° (SE) 866 4.1 -22.5°
